CCM26E LFKF-LFML

Flight info

Callsign CCM26E
Flight time 0h 51m
Altitude 22000
Route AJO Z154 TINOT
Aircraft A320/M-SDE3FGHIRWY/LB1

Departure

Time 2026-05-04 07:54
Airport Figari Sud-Corse Airport (LFKF)

Arrival

Time 2026-05-04 08:46
Airport Marseille Provence Airport (LFML)
Time Latitude Longitude Altitude Speed Heading
2026-05-04 07:27 41.49963 9.09795 58 ft 0 kts 140°
2026-05-04 07:46 41.49957 9.09795 67 ft 0 kts 184°
2026-05-04 07:47 41.49958 9.09785 67 ft 1 kts 271°
2026-05-04 07:47 41.49963 9.09781 58 ft 2 kts 321°
2026-05-04 07:47 41.49969 9.09778 58 ft 0 kts 335°
2026-05-04 07:49 41.50112 9.09797 59 ft 2 kts 323°
2026-05-04 07:49 41.50122 9.09786 59 ft 2 kts 319°
2026-05-04 07:49 41.50130 9.09776 64 ft 1 kts 319°
2026-05-04 07:50 41.50136 9.09769 64 ft 1 kts 318°
2026-05-04 07:50 41.50148 9.09755 64 ft 8 kts 318°
2026-05-04 07:50 41.50196 9.09666 66 ft 14 kts 268°
2026-05-04 07:50 41.50146 9.09579 63 ft 11 kts 228°
2026-05-04 07:51 41.50092 9.09501 59 ft 11 kts 227°
2026-05-04 07:51 41.50029 9.09411 60 ft 18 kts 226°
2026-05-04 07:51 41.49932 9.09270 60 ft 22 kts 228°
2026-05-04 07:51 41.49828 9.09120 55 ft 22 kts 227°
2026-05-04 07:52 41.49723 9.08969 51 ft 22 kts 227°
2026-05-04 07:52 41.49617 9.08815 51 ft 22 kts 227°
2026-05-04 07:52 41.49518 9.08691 49 ft 14 kts 188°
2026-05-04 07:52 41.49477 9.08632 48 ft 9 kts 316°
2026-05-04 07:53 41.49517 9.08672 48 ft 9 kts 47°
2026-05-04 07:54 41.53765 9.14777 2597 ft 190 kts 53°
2026-05-04 07:55 41.54628 9.16239 3031 ft 208 kts 54°
2026-05-04 07:55 41.55514 9.17802 3776 ft 215 kts 54°
2026-05-04 07:55 41.56427 9.19423 4452 ft 222 kts 55°
2026-05-04 07:55 41.57357 9.21119 5114 ft 230 kts 61°
2026-05-04 07:56 41.57785 9.23141 5810 ft 228 kts 95°
2026-05-04 07:56 41.57357 9.25112 6545 ft 226 kts 126°
2026-05-04 07:56 41.56213 9.26511 7221 ft 227 kts 156°
2026-05-04 07:56 41.54673 9.26903 7859 ft 230 kts 189°
2026-05-04 07:57 41.53214 9.26142 8637 ft 227 kts 219°
2026-05-04 07:57 41.52262 9.24475 9354 ft 229 kts 251°
2026-05-04 07:57 41.51935 9.22392 10143 ft 231 kts 261°
2026-05-04 07:57 41.51680 9.20271 10876 ft 232 kts 261°
2026-05-04 07:58 41.51425 9.18135 11598 ft 235 kts 261°
2026-05-04 07:58 41.51162 9.15975 12344 ft 236 kts 261°
2026-05-04 07:58 41.50899 9.13831 13090 ft 238 kts 261°
2026-05-04 07:58 41.50631 9.11635 13838 ft 241 kts 261°
2026-05-04 07:59 41.50360 9.09419 14500 ft 243 kts 261°
2026-05-04 07:59 41.50103 9.07169 15038 ft 252 kts 269°
2026-05-04 07:59 41.50604 9.04850 15215 ft 278 kts 302°
2026-05-04 07:59 41.52105 9.03042 15379 ft 307 kts 325°
2026-05-04 08:00 41.54040 9.01598 15497 ft 331 kts 328°
2026-05-04 08:00 41.56121 9.00061 15630 ft 352 kts 328°
2026-05-04 08:00 41.58325 8.98423 15761 ft 372 kts 328°
2026-05-04 08:02 41.72765 8.82384 19470 ft 399 kts 316°
2026-05-04 08:02 41.74848 8.79912 19966 ft 401 kts 313°
2026-05-04 08:02 41.76650 8.77148 20465 ft 400 kts 303°
2026-05-04 08:03 41.78053 8.73936 20931 ft 399 kts 292°
2026-05-04 08:03 41.79074 8.70469 21429 ft 401 kts 289°
2026-05-04 08:03 41.80065 8.66973 21906 ft 403 kts 289°
2026-05-04 08:03 41.81063 8.63462 22060 ft 405 kts 289°
2026-05-04 08:04 41.82084 8.59881 22091 ft 418 kts 289°
2026-05-04 08:04 41.83135 8.56205 22089 ft 425 kts 289°
2026-05-04 08:04 41.84183 8.52543 22090 ft 427 kts 289°
2026-05-04 08:04 41.85246 8.48823 22089 ft 427 kts 289°
2026-05-04 08:05 41.86309 8.45100 22089 ft 428 kts 289°
2026-05-04 08:05 41.87371 8.41368 22093 ft 428 kts 289°
2026-05-04 08:05 41.88425 8.37645 22093 ft 428 kts 289°
2026-05-04 08:05 41.89477 8.33912 22098 ft 428 kts 289°
2026-05-04 08:06 41.90527 8.30173 22087 ft 428 kts 289°
2026-05-04 08:06 41.91578 8.26434 22087 ft 428 kts 289°
2026-05-04 08:06 41.92617 8.22737 22085 ft 429 kts 289°
2026-05-04 08:06 41.93667 8.18996 22081 ft 428 kts 288°
2026-05-04 08:08 42.00628 7.94039 22075 ft 428 kts 288°
2026-05-04 08:08 42.02010 7.89076 22071 ft 428 kts 288°
2026-05-04 08:10 42.09951 7.60256 22078 ft 429 kts 288°
2026-05-04 08:11 42.11324 7.55263 22087 ft 429 kts 288°
2026-05-04 08:11 42.13387 7.47731 22089 ft 428 kts 288°
2026-05-04 08:11 42.14067 7.45239 22088 ft 428 kts 288°
2026-05-04 08:12 42.15094 7.41475 22088 ft 428 kts 288°
2026-05-04 08:12 42.16117 7.37705 22085 ft 428 kts 288°
2026-05-04 08:12 42.17138 7.33941 22085 ft 428 kts 288°
2026-05-04 08:12 42.18158 7.30176 22071 ft 428 kts 288°
2026-05-04 08:13 42.19507 7.25184 22066 ft 428 kts 288°
2026-05-04 08:13 42.20196 7.22631 22068 ft 428 kts 288°
2026-05-04 08:13 42.21213 7.18856 22069 ft 428 kts 288°
2026-05-04 08:13 42.22214 7.15132 22067 ft 428 kts 288°
2026-05-04 08:14 42.23229 7.11355 22064 ft 428 kts 288°
2026-05-04 08:14 42.24244 7.07572 22060 ft 428 kts 288°
2026-05-04 08:14 42.25256 7.03794 22059 ft 428 kts 288°
2026-05-04 08:16 42.32300 6.77372 22076 ft 428 kts 287°
2026-05-04 08:16 42.33305 6.73582 22073 ft 427 kts 287°
2026-05-04 08:16 42.34303 6.69806 22077 ft 427 kts 287°
2026-05-04 08:17 42.35299 6.66024 22073 ft 427 kts 287°
2026-05-04 08:17 42.36295 6.62239 22069 ft 427 kts 287°
2026-05-04 08:17 42.37288 6.58457 22066 ft 427 kts 287°
2026-05-04 08:17 42.38280 6.54677 22068 ft 426 kts 287°
2026-05-04 08:19 42.45183 6.28254 22064 ft 426 kts 287°
2026-05-04 08:19 42.46166 6.24470 22058 ft 427 kts 287°
2026-05-04 08:20 42.47134 6.20726 22050 ft 426 kts 287°
2026-05-04 08:20 42.48111 6.16933 22047 ft 426 kts 287°
2026-05-04 08:20 42.49084 6.13144 22046 ft 427 kts 287°
2026-05-04 08:20 42.50061 6.09342 22046 ft 427 kts 287°
2026-05-04 08:21 42.51034 6.05548 22052 ft 427 kts 286°
2026-05-04 08:21 42.52010 6.01746 22051 ft 427 kts 286°
2026-05-04 08:21 42.52986 5.97944 22052 ft 427 kts 286°
2026-05-04 08:21 42.53961 5.94145 22051 ft 427 kts 286°
2026-05-04 08:22 42.54939 5.90341 22046 ft 427 kts 286°
2026-05-04 08:22 42.55913 5.86548 22042 ft 427 kts 286°
2026-05-04 08:24 42.62649 5.59946 21735 ft 421 kts 286°
2026-05-04 08:24 42.63592 5.56215 21053 ft 416 kts 286°
2026-05-04 08:24 42.64528 5.52509 20407 ft 412 kts 286°
2026-05-04 08:24 42.65450 5.48842 19783 ft 408 kts 286°
2026-05-04 08:25 42.66344 5.45261 19176 ft 405 kts 285°
2026-05-04 08:25 42.67245 5.41650 18581 ft 401 kts 286°
2026-05-04 08:25 42.68144 5.38084 17976 ft 398 kts 287°
2026-05-04 08:25 42.69343 5.34708 17433 ft 396 kts 298°
2026-05-04 08:26 42.70973 5.31695 16898 ft 396 kts 308°
2026-05-04 08:27 42.90098 5.24900 15122 ft 418 kts 351°
2026-05-04 08:28 42.92991 5.24443 14894 ft 418 kts 350°
2026-05-04 08:28 42.95873 5.23979 15013 ft 417 kts 351°
2026-05-04 08:28 42.98765 5.23508 15034 ft 420 kts 350°
2026-05-04 08:28 43.01669 5.23032 15034 ft 420 kts 350°
2026-05-04 08:29 43.04563 5.22555 15037 ft 419 kts 351°
2026-05-04 08:29 43.07420 5.22085 15036 ft 419 kts 351°
2026-05-04 08:29 43.10319 5.21608 15035 ft 420 kts 351°
2026-05-04 08:31 43.30613 5.18272 12939 ft 411 kts 351°
2026-05-04 08:33 43.48043 5.15396 10153 ft 311 kts 351°
2026-05-04 08:33 43.50184 5.15036 9937 ft 308 kts 351°
2026-05-04 08:35 43.64361 5.09733 7721 ft 303 kts 324°
2026-05-04 08:35 43.66141 5.08186 7092 ft 299 kts 324°
2026-05-04 08:35 43.67835 5.06718 6954 ft 276 kts 323°
2026-05-04 08:35 43.69103 5.04943 6768 ft 248 kts 289°
2026-05-04 08:37 43.64866 4.95460 5535 ft 194 kts 213°
2026-05-04 08:37 43.63657 4.94784 5208 ft 188 kts 187°
2026-05-04 08:37 43.62414 4.95050 4941 ft 177 kts 159°
2026-05-04 08:38 43.61459 4.96040 4715 ft 169 kts 139°
2026-05-04 08:38 43.60678 4.97167 4499 ft 160 kts 140°
2026-05-04 08:38 43.59930 4.98246 4286 ft 153 kts 140°
2026-05-04 08:40 43.55076 5.05206 2952 ft 138 kts 135°
2026-05-04 08:40 43.54423 5.06142 2769 ft 137 kts 134°
2026-05-04 08:40 43.53774 5.07071 2582 ft 130 kts 134°
2026-05-04 08:41 43.53154 5.07958 2413 ft 127 kts 133°
2026-05-04 08:41 43.52541 5.08835 2244 ft 126 kts 133°
2026-05-04 08:41 43.51933 5.09705 2077 ft 126 kts 131°
2026-05-04 08:41 43.51329 5.10568 1919 ft 126 kts 133°
2026-05-04 08:42 43.50715 5.11447 1744 ft 128 kts 132°
2026-05-04 08:42 43.50097 5.12329 1567 ft 128 kts 133°
2026-05-04 08:42 43.49479 5.13212 1410 ft 128 kts 132°
2026-05-04 08:42 43.48861 5.14096 1220 ft 128 kts 132°
2026-05-04 08:43 43.48250 5.14967 1049 ft 128 kts 132°
2026-05-04 08:43 43.47630 5.15853 869 ft 132 kts 131°
2026-05-04 08:43 43.47005 5.16744 703 ft 126 kts 130°
2026-05-04 08:43 43.46398 5.17611 541 ft 125 kts 130°
2026-05-04 08:44 43.45784 5.18486 371 ft 127 kts 130°
2026-05-04 08:44 43.45173 5.19356 208 ft 126 kts 130°
2026-05-04 08:46 43.43419 5.21860 50 ft 18 kts 134°
2026-05-04 08:46 43.43346 5.21983 53 ft 15 kts 116°
2026-05-04 08:46 43.43333 5.22109 55 ft 10 kts 89°
2026-05-04 08:46 43.43335 5.22195 55 ft 10 kts 85°
2026-05-04 08:47 43.43376 5.22276 54 ft 12 kts 22°
2026-05-04 08:47 43.43457 5.22254 53 ft 13 kts 331°
2026-05-04 08:47 43.43535 5.22194 51 ft 14 kts 331°
2026-05-04 08:47 43.43619 5.22127 49 ft 14 kts 332°
2026-05-04 08:48 43.43707 5.22054 47 ft 15 kts 327°
2026-05-04 08:48 43.43781 5.22035 45 ft 12 kts 26°
2026-05-04 08:48 43.43842 5.22108 45 ft 11 kts 45°
2026-05-04 08:48 43.43855 5.22183 43 ft 8 kts 137°
2026-05-04 08:49 43.43844 5.22207 45 ft 3 kts 106°
2026-05-04 08:50 43.43863 5.22315 47 ft 0 kts 74°